This is the latest recevied weather packets stored in our database for station/object AF9W-5. If no packets are shown the sender has not sent any weather packets the latest 10 day(s).
| Time | Temp. | Humidity | Pressure | Rain* | Wind** | Luminosity | Snow |
|---|---|---|---|---|---|---|---|
| 1777420754 | 26.67° C | 15% | 1013.9 hPa | 0 mm | - | 152 W/m² | - |
| 1777420451 | 26.67° C | 14% | 1013.9 hPa | 0 mm | - | 169 W/m² | - |
| 1777420148 | 26.67° C | 14% | 1014.2 hPa | 0 mm | - | 185 W/m² | - |
| 1777419843 | 26.67° C | 13% | 1014.2 hPa | 0 mm | - | 180 W/m² | - |
| 1777419541 | 26.67° C | 14% | 1014.3 hPa | 0 mm | - | 173 W/m² | - |
| 1777419239 | 27.22° C | 14% | 1014 hPa | 0 mm | - | 182 W/m² | - |
| 1777418936 | 26.11° C | 15% | 1014.1 hPa | 0 mm | - | 187 W/m² | - |
| 1777418631 | 26.11° C | 15% | 1014 hPa | 0 mm | - | 187 W/m² | - |
| 1777418323 | 26.67° C | 14% | 1014.2 hPa | 0 mm | - | 195 W/m² | - |
| 1777418019 | 27.22° C | 13% | 1014.2 hPa | 0 mm | - | 232 W/m² | - |
| 1777417714 | 27.22° C | 13% | 1014.2 hPa | 0 mm | - | 232 W/m² | - |
| 1777417410 | 27.78° C | 13% | 1014.2 hPa | 0 mm | - | 284 W/m² | - |
| 1777417107 | 27.22° C | 13% | 1014.2 hPa | 0 mm | - | 292 W/m² | - |
| 1777416802 | 27.22° C | 13% | 1014.2 hPa | 0 mm | - | 291 W/m² | - |
| 1777416497 | 27.78° C | 13% | 1014 hPa | 0 mm | - | 294 W/m² | - |
| 1777416195 | 27.78° C | 13% | 1014.3 hPa | 0 mm | - | 286 W/m² | - |
| 1777415893 | 28.33° C | 12% | 1014.3 hPa | 0 mm | - | 297 W/m² | - |
| 1777415590 | 28.33° C | 12% | 1014.2 hPa | 0 mm | - | 416 W/m² | - |
| 1777415285 | 28.33° C | 12% | 1014.1 hPa | 0 mm | - | 453 W/m² | - |
| 1777414980 | 29.44° C | 13% | 1014.3 hPa | 0 mm | - | 530 W/m² | - |
| 1777414680 | 29.44° C | 12% | 1013.9 hPa | 0 mm | - | 573 W/m² | - |
| 1777414375 | 28.33° C | 12% | 1014.4 hPa | 0 mm | - | 657 W/m² | - |
| 1777414070 | 28.33° C | 12% | 1014.1 hPa | 0 mm | - | 657 W/m² | - |
| 1777413770 | 28.89° C | 12% | 1014.2 hPa | 0 mm | - | 707 W/m² | - |
| 1777412858 | 28.33° C | 13% | 1014.6 hPa | 0 mm | - | 759 W/m² | - |
* Rain latest hour (hover to see other rain measurements)
** Current wind speed in m/s (hover to see current wind gust speed)